Temperature
24 25 25 25 26 25 24 22 22 22 22 22 22 22 22 23 23 23 23 22 23 22 22 22 22 22 22 21 21 21 20 20 20 20 20 19 19 19 19 19 18 18 18 18
23 25 25 25 25 25 25 24 23 22 22 22 22 22 21 22 22 22 22 22 22 22 22 22 22 22 21 21 21 20 20 20 20 20 19 19 19 19 19 18 18 18 18 18
21 23 24 23 24 24 23 23 23 22 22 21 21 21 21 21 21 21 22 22 22 22 22 22 22 21 21 21 21 20 20 20 19 19 19 19 19 18 18 18 18 18 18 18
20 22 23 22 24 24 23 22 22 21 21 21 21 21 21 21 21 21 21 21 21 21 21 21 21 21 21 20 20 20 20 19 19 19 18 18 18 18 18 18 18 18 18 17
19 20 21 23 23 24 22 21 21 21 21 21 21 20 20 20 21 21 21 21 21 20 21 21 21 21 20 20 20 20 19 19 19 19 18 18 18 18 18 18 18 17 17 17
19 21 21 22 23 24 22 20 21 21 20 20 20 18 18 20 20 21 21 21 20 20 20 20 20 20 20 20 20 19 19 19 19 18 18 18 18 18 18 17 17 17 17 17
19 20 20 21 23 23 21 20 21 21 21 20 19 19 19 20 20 20 20 20 20 20 20 20 20 20 20 19 19 19 19 19 19 18 18 18 18 17 17 17 17 17 16 16
18 19 19 21 21 20 19 21 21 21 21 20 20 20 19 19 19 19 19 19 19 19 19 19 19 19 19 19 19 19 18 18 18 18 18 17 17 17 17 17 17 16 16 16
17 18 19 20 20 21 21 21 21 21 21 20 20 19 19 19 19 19 19 19 18 18 19 18 18 18 18 18 18 18 18 18 18 17 17 17 17 17 17 17 16 16 16 16
17 18 19 20 20 20 21 21 21 21 20 20 19 19 19 18 18 18 18 18 18 18 18 18 18 18 18 18 18 18 18 18 17 17 17 17 17 16 16 16 16 16 16 16
16 17 18 19 20 20 20 20 20 20 20 20 19 19 18 18 18 18 18 17 17 17 17 17 17 17 17 17 17 17 17 17 17 17 16 16 16 16 16 16 16 16 16 16
16 17 17 18 19 19 19 19 19 19 19 19 19 18 18 18 18 17 17 17 17 17 17 17 17 17 17 17 17 17 17 17 16 16 16 16 16 16 16 16 16 16 15 15
19 19 19 18 19 19 19 18 18 18 18 18 18 18 18 17 17 17 17 16 16 16 16 16 16 16 16 16 16 16 16 16 16 16 16 16 15 15 15 15 15 15 15 15
19 19 18 18 18 18 18 18 18 18 18 17 17 17 17 17 16 16 16 16 16 16 15 16 16 16 16 16 16 15 15 15 15 15 15 15 15 15 15 15 15 14 14 14
18 18 18 18 17 17 17 17 17 17 17 16 16 16 16 16 15 15 15 15 15 15 15 15 15 15 15 15 15 15 15 15 15 15 15 15 15 14 14 14 14 14 14 14
18 18 17 17 17 17 17 17 16 16 16 16 16 16 15 15 15 15 15 15 14 14 14 14 14 14 14 14 14 14 14 14 14 14 14 14 14 14 14 14 14 14 13 13
17 16 17 17 16 16 16 16 16 16 16 16 16 15 15 15 15 14 14 14 14 14 14 13 13 14 14 14 14 14 14 14 14 14 14 13 13 13 13 13 13 13 13 13
17 17 17 16 16 16 16 16 16 16 16 15 15 15 15 14 14 14 14 14 13 13 13 13 13 13 13 13 13 13 13 13 13 13 13 13 13 13 13 13 12 12 12 12
16 16 16 16 16 16 16 16 16 15 15 15 15 14 14 14 14 13 13 13 13 13 13 13 13 13 13 12 12 12 12 12 12 12 12 12 12 12 12 12 12 12 12 12
16 16 16 16 16 16 15 15 15 15 15 14 14 14 14 13 13 13 13 13 12 12 12 12 12 12 12 12 12 12 12 12 12 12 12 12 12 12 11 11 11 11 11 11
15 15 15 15 15 15 15 15 15 14 14 14 14 13 13 13 13 13 13 12 12 12 12 12 12 12 12 12 12 12 12 12 11 11 11 11 11 11 11 11 11 11 11 11
15 15 15 15 15 15 14 14 14 14 14 14 13 13 13 13 13 12 12 12 12 12 12 12 12 12 12 12 12 11 11 11 11 11 11 11 11 11 11 11 11 11 10 10
15 15 15 14 14 14 14 14 14 14 13 13 13 13 13 13 12 12 12 12 12 12 12 11 11 11 11 11 11 11 11 11 10 10 10 10 10 10 10 10 10 10 10 10
14 14 14 14 14 14 14 14 13 13 13 13 13 13 13 12 12 12 12 12 11 11 11 11 11 11 11 11 10 10 10 10 10 10 10 10 10 10 10 10 9 9 9 9
14 14 14 14 14 13 13 13 13 13 13 13 12 12 12 12 12 12 11 11 11 11 11 11 11 11 10 10 10 10 10 10 10 9 9 9 9 9 9 9 9 9 9 9
13 13 13 13 13 13 13 13 13 13 13 12 12 12 12 12 12 11 11 11 11 11 11 10 10 10 10 10 10 9 9 9 9 9 9 9 9 9 9 9 8 8 8 8
13 13 13 13 13 13 13 13 13 13 12 12 12 12 12 11 11 11 11 11 10 10 10 10 10 10 10 9 9 9 9 9 9 9 9 8 8 8 8 8 8 8 8 7
Wind_Speed
3 2 1 1 1 1 3 5 5 5 5 5 4 3 2 3 5 6 6 5 5 4 4 4 4 4 6 6 5 5 6 5 5 5 4 4 4 4 4 4 5 5 4 3
3 3 4 4 3 1 2 2 3 3 1 2 2 3 4 4 6 6 5 4 4 4 5 6 6 5 5 5 6 6 6 6 5 4 4 4 4 4 4 3 3 4 4 4
2 4 5 3 2 2 2 1 4 3 4 2 4 5 3 4 5 5 4 4 3 3 3 4 5 5 5 5 5 6 6 5 4 4 5 4 4 4 4 4 4 4 5 4
1 4 1 5 2 5 7 5 4 3 3 6 6 5 3 4 5 5 4 3 3 2 1 1 2 3 4 3 4 5 5 5 4 5 4 3 3 4 4 3 3 4 4 4
3 1 3 4 3 1 5 3 2 5 5 6 6 6 6 4 4 4 3 3 2 1 1 1 2 2 3 3 3 3 4 3 4 5 5 4 4 4 3 3 3 3 3 4
4 3 3 5 5 1 8 2 3 4 5 5 6 4 1 2 3 4 4 3 2 1 2 2 2 3 3 2 2 2 3 3 3 4 4 5 5 4 3 3 3 3 3 3
3 3 4 5 3 4 4 5 3 3 6 5 4 4 4 2 3 4 3 3 3 2 2 1 1 3 2 1 1 2 2 2 2 3 4 5 4 3 3 3 2 2 2 3
4 2 5 5 2 3 5 4 3 3 4 5 4 4 4 4 3 4 3 4 4 3 2 2 2 2 1 1 2 1 1 2 2 3 3 3 3 3 3 3 2 2 2 3
4 5 4 1 3 2 5 5 4 4 4 6 5 4 3 3 2 2 3 3 2 2 2 3 1 1 1 3 1 1 1 1 2 2 2 2 3 3 2 3 3 3 3 3
3 1 2 4 5 5 5 5 5 5 5 6 5 4 3 2 2 2 2 2 2 2 2 2 3 2 1 2 1 1 1 1 1 1 1 1 2 3 3 3 3 3 3 4
2 0 4 6 5 5 6 6 6 5 5 5 5 4 3 2 1 1 1 1 1 2 2 3 3 3 3 2 0 0 1 1 1 1 2 2 2 2 3 4 5 5 5 4
3 4 3 1 1 5 6 5 5 6 5 4 4 4 3 2 1 1 1 1 1 2 1 2 2 3 3 2 0 1 1 1 2 2 2 2 2 1 2 3 4 5 6 5
4 2 4 3 3 5 5 4 5 5 4 2 1 2 3 2 2 1 0 1 1 2 2 3 2 3 4 3 0 1 1 2 1 1 1 2 2 2 2 2 2 3 4 4
3 5 4 2 2 3 3 4 4 4 4 3 2 2 2 1 1 1 1 1 1 2 3 3 3 4 5 3 2 1 1 1 1 1 1 1 2 2 2 2 2 2 3 4
2 3 3 2 2 3 2 3 4 3 4 4 3 3 3 3 2 2 2 2 2 3 3 3 4 5 5 3 2 2 1 2 1 1 1 1 1 1 1 2 2 2 1 2
2 3 4 3 2 2 2 3 3 2 2 3 2 2 2 2 2 2 3 2 2 3 3 3 4 5 4 3 2 2 2 3 2 1 1 1 1 1 1 2 2 2 2 3
5 2 2 1 1 1 1 2 2 2 2 2 2 2 2 3 3 2 2 1 1 1 2 3 4 5 4 3 2 2 2 3 3 2 1 1 1 1 1 1 2 2 2 3
6 5 4 3 2 2 1 1 2 2 2 2 3 3 2 1 0 0 1 1 2 3 3 3 4 4 4 4 3 2 2 2 2 1 2 1 2 1 1 1 1 1 2 1
4 3 2 2 3 3 2 1 1 1 2 3 3 2 2 1 1 0 1 1 2 3 4 4 4 4 3 4 3 2 2 2 2 2 2 2 2 1 1 1 1 1 1 0
3 3 3 3 3 3 2 1 1 1 1 2 2 1 0 1 1 1 1 1 2 3 3 3 3 3 3 3 3 2 2 2 2 2 2 2 2 2 2 2 2 2 1 1
3 3 4 3 2 2 2 2 2 1 0 1 1 1 2 1 1 1 1 1 4 3 2 2 2 2 3 3 3 2 2 2 2 2 2 2 2 2 2 2 2 2 1 1
3 3 4 3 3 2 1 2 2 1 1 1 1 0 1 0 0 0 1 2 3 2 1 1 2 2 3 3 2 2 2 2 2 2 2 2 2 2 2 2 2 1 1 1
2 3 3 2 1 0 0 1 1 1 1 1 0 1 1 1 1 1 2 3 2 2 1 1 2 4 5 3 2 2 2 2 2 2 2 2 2 2 2 2 2 1 1 1
2 2 1 1 2 2 2 1 1 0 1 1 1 1 1 1 1 1 2 2 1 1 1 1 3 4 4 2 2 2 3 2 2 2 2 2 2 2 2 2 1 1 1 1
1 1 1 2 1 1 1 0 1 1 1 1 1 1 0 1 2 1 1 0 1 1 1 2 3 4 2 2 2 2 2 2 2 2 3 2 2 2 2 2 2 2 2 2
1 1 1 1 2 2 2 1 1 1 1 0 1 1 0 1 1 1 0 0 1 1 1 1 1 2 1 2 2 2 2 3 3 2 3 3 2 2 2 2 2 1 1 1
0 1 0 1 1 1 1 1 2 2 2 2 1 1 1 1 1 1 1 1 1 1 1 1 1 1 1 2 2 3 3 3 2 2 2 2 2 2 2 2 2 2 2 2
Wind_Direction
202 239 36 31 349 108 136 170 177 206 191 217 207 175 155 120 115 114 122 137 147 156 164 158 167 175 174 175 173 175 174 185 199 199 200 199 199 203 206 208 210 206 208 215
6 359 29 29 9 49 96 121 139 140 191 221 166 93 73 80 103 114 123 141 149 151 158 159 162 164 159 165 171 175 182 196 200 198 200 202 200 196 192 203 207 196 204 210
309 327 32 351 284 123 78 48 140 168 206 162 99 96 106 110 108 109 120 117 138 147 153 164 166 159 162 165 164 165 176 187 189 189 194 204 205 198 204 210 206 203 209 208
102 46 211 250 276 118 103 75 77 99 141 138 131 123 96 98 109 99 88 93 90 82 89 129 133 141 149 148 158 169 178 190 192 188 193 194 192 200 204 207 213 213 217 219
116 156 277 306 326 155 116 59 53 106 106 111 122 85 46 40 77 104 102 96 102 85 84 97 113 122 129 131 143 158 177 190 193 187 190 189 196 210 209 202 214 216 212 215
127 148 216 261 287 120 97 43 320 104 115 121 100 86 328 356 57 67 69 79 75 60 59 64 68 96 112 133 138 181 197 196 190 181 188 195 202 210 210 208 222 224 228 221
152 184 251 272 296 76 112 212 243 131 128 118 122 169 188 130 71 72 73 64 69 57 60 78 76 94 104 124 211 222 209 200 189 191 200 201 202 206 206 207 216 223 230 232
142 153 251 295 54 128 187 185 138 108 111 113 120 125 123 110 89 75 63 48 52 44 9 2 67 96 114 244 250 221 178 188 201 207 212 204 194 210 202 189 194 223 238 257
166 197 241 3 106 133 134 125 116 106 103 116 118 124 121 113 99 80 71 54 38 50 13 352 15 103 192 253 245 173 169 205 223 220 210 194 188 198 197 191 202 218 227 242
64 30 35 50 57 53 69 88 100 106 104 103 109 121 122 107 91 71 65 52 37 46 24 341 339 348 266 258 210 161 197 233 222 208 226 225 204 193 194 203 211 218 222 238
68 57 41 27 38 67 71 69 75 88 101 117 121 134 147 156 162 132 78 53 68 75 29 338 334 335 329 322 34 134 200 218 241 227 214 228 229 215 211 218 211 213 223 223
206 218 152 235 7 65 66 62 72 84 78 86 120 137 151 172 194 172 136 79 24 18 1 324 334 331 329 323 286 176 205 230 230 227 224 223 224 256 258 229 234 223 224 218
166 144 120 116 69 63 71 71 62 68 82 75 65 112 138 173 197 174 136 43 344 330 326 332 346 340 328 331 302 191 221 234 240 236 235 234 217 210 243 281 277 252 247 241
117 94 76 79 97 83 91 89 80 66 64 73 69 61 76 86 67 53 358 319 333 356 5 2 2 342 327 341 1 332 310 293 269 254 249 242 232 227 219 218 252 289 285 258
77 105 142 131 85 78 81 83 78 65 59 56 59 61 62 58 45 19 347 357 25 29 19 7 356 330 327 340 357 343 311 289 271 270 262 247 231 217 216 222 225 246 270 291
104 85 100 94 102 90 82 90 102 111 101 88 73 54 52 63 55 31 22 28 37 18 355 353 339 323 328 340 348 342 322 307 301 292 286 282 261 233 224 222 232 233 231 238
126 130 120 102 104 91 107 142 152 149 124 110 114 102 76 62 57 37 22 7 342 8 7 1 334 332 347 2 360 343 331 327 331 338 326 302 288 252 234 216 226 239 247 239
159 163 163 168 170 152 118 116 133 137 143 137 123 112 111 123 147 273 307 353 17 13 358 339 337 350 354 353 351 344 342 341 337 320 314 318 310 284 259 231 224 248 271 289
135 133 130 138 147 136 122 115 132 132 129 121 118 133 168 200 187 123 12 44 24 344 322 326 341 359 345 335 342 341 340 333 329 319 308 303 305 305 296 275 261 253 244 173
127 129 120 114 114 122 126 127 115 107 128 139 133 143 244 246 186 120 83 26 286 274 290 321 339 336 324 325 342 344 339 339 336 325 317 302 290 291 281 262 251 243 245 236
104 109 106 102 93 103 120 126 125 130 156 137 151 184 210 231 191 145 113 301 294 302 329 322 325 321 320 323 328 340 345 350 342 324 321 322 319 309 298 282 270 260 246 244
89 93 96 96 91 90 96 105 124 132 97 64 62 123 144 181 225 224 236 237 263 276 279 299 308 317 326 331 344 344 340 341 334 328 324 330 329 318 314 307 295 285 273 259
103 101 98 97 111 153 356 62 119 136 141 151 130 131 155 187 192 184 270 278 263 264 265 293 313 321 328 345 352 346 340 337 331 326 324 324 318 312 313 311 307 303 304 316
104 98 117 126 104 85 59 353 18 112 144 132 136 158 158 156 295 263 231 257 275 284 286 301 316 320 326 346 344 343 341 342 345 344 345 348 343 342 344 339 323 312 309 311
108 102 112 100 106 172 214 227 44 41 59 47 0 340 358 159 181 236 234 249 352 357 318 311 317 319 331 352 351 348 349 351 352 358 4 357 350 348 344 340 329 319 318 323
128 174 201 199 197 202 197 182 186 207 163 101 333 333 24 82 111 141 186 273 301 301 307 317 327 334 358 360 353 348 346 345 346 349 350 348 347 350 346 343 343 339 326 307
72 84 65 336 286 251 221 186 180 192 181 171 193 237 220 138 100 83 83 24 355 354 352 353 6 22 13 3 357 354 352 355 355 356 1 3 3 357 349 345 340 335 333 332
Height
1495 1492 1490 1492 1491 1492 1499 1504 1513 1510 1507 1501 1497 1495 1494 1493 1493 1495 1497 1498 1499 1501 1503 1504 1504 1505 1506 1507 1508 1509 1510 1511 1511 1512 1512 1513 1513 1513 1514 1514 1514 1514 1514 1514
1497 1491 1490 1493 1490 1490 1493 1495 1500 1501 1503 1496 1496 1496 1495 1495 1494 1495 1496 1498 1500 1500 1501 1501 1501 1502 1503 1504 1505 1506 1506 1506 1508 1509 1509 1509 1510 1510 1510 1510 1510 1511 1511 1511
1509 1498 1495 1505 1495 1493 1495 1494 1496 1503 1501 1495 1496 1497 1497 1496 1496 1495 1495 1497 1498 1498 1499 1500 1500 1501 1501 1502 1502 1503 1503 1504 1505 1505 1506 1507 1507 1507 1507 1507 1508 1508 1508 1508
1511 1508 1518 1505 1488 1487 1492 1495 1494 1494 1494 1494 1495 1497 1497 1496 1496 1496 1496 1497 1498 1498 1499 1499 1499 1499 1500 1500 1500 1500 1500 1501 1502 1502 1503 1504 1504 1504 1504 1505 1505 1504 1504 1505
1516 1518 1513 1498 1489 1488 1493 1500 1494 1494 1494 1495 1496 1496 1498 1497 1496 1496 1496 1497 1498 1498 1498 1498 1498 1498 1498 1498 1498 1498 1498 1499 1499 1500 1500 1501 1501 1502 1502 1502 1501 1501 1501 1501
1512 1515 1519 1503 1488 1485 1489 1505 1495 1493 1494 1495 1494 1501 1502 1498 1496 1496 1495 1497 1497 1497 1497 1497 1496 1496 1496 1496 1496 1496 1497 1497 1497 1497 1498 1498 1498 1499 1499 1499 1499 1499 1499 1499
1510 1513 1508 1492 1486 1486 1505 1507 1495 1493 1493 1494 1495 1497 1498 1497 1496 1495 1495 1495 1496 1496 1496 1495 1495 1495 1494 1493 1493 1493 1494 1494 1494 1495 1495 1495 1496 1496 1497 1497 1497 1497 1497 1496
1510 1515 1512 1490 1487 1493 1497 1493 1493 1492 1493 1494 1495 1497 1496 1496 1496 1495 1495 1495 1495 1495 1494 1494 1494 1493 1492 1491 1491 1491 1491 1491 1491 1492 1492 1492 1493 1494 1494 1494 1494 1494 1494 1494
1502 1505 1496 1491 1490 1490 1490 1491 1492 1492 1493 1494 1494 1496 1496 1496 1496 1495 1495 1494 1494 1494 1493 1492 1492 1491 1490 1489 1489 1488 1488 1488 1488 1488 1489 1489 1490 1491 1491 1491 1491 1491 1491 1491
1499 1497 1494 1493 1492 1492 1491 1492 1492 1492 1493 1494 1495 1495 1496 1496 1495 1495 1494 1493 1493 1492 1490 1490 1489 1488 1487 1487 1486 1486 1485 1485 1486 1486 1487 1487 1488 1488 1488 1488 1488 1488 1487 1487
1499 1497 1495 1494 1493 1493 1493 1493 1493 1493 1493 1494 1494 1495 1495 1495 1495 1494 1493 1493 1492 1490 1489 1487 1487 1486 1485 1484 1483 1483 1483 1483 1483 1484 1484 1484 1485 1485 1485 1485 1485 1485 1484 1484
1499 1495 1495 1496 1495 1494 1493 1493 1493 1492 1492 1493 1493 1494 1494 1494 1494 1493 1492 1491 1490 1489 1488 1486 1485 1484 1483 1482 1482 1481 1480 1480 1481 1481 1481 1481 1481 1481 1481 1482 1482 1481 1481 1480
1492 1493 1493 1494 1495 1495 1494 1494 1493 1493 1492 1492 1492 1492 1492 1493 1493 1492 1491 1490 1489 1488 1487 1485 1483 1482 1481 1479 1479 1478 1478 1478 1477 1478 1478 1478 1478 1478 1477 1477 1478 1477 1477 1476
1491 1492 1493 1494 1494 1494 1494 1494 1493 1493 1492 1492 1492 1492 1492 1491 1491 1490 1489 1488 1487 1486 1485 1483 1481 1480 1479 1478 1477 1476 1476 1475 1475 1475 1475 1475 1475 1474 1474 1473 1472 1472 1472 1472
1491 1491 1492 1493 1493 1493 1493 1493 1493 1493 1492 1492 1492 1492 1491 1491 1489 1489 1488 1488 1486 1485 1483 1482 1480 1479 1478 1476 1475 1474 1473 1473 1472 1472 1471 1471 1471 1471 1470 1470 1469 1468 1468 1467
1491 1491 1491 1491 1491 1492 1492 1492 1492 1492 1491 1491 1491 1491 1491 1491 1490 1489 1488 1487 1485 1484 1483 1481 1479 1477 1476 1474 1473 1472 1471 1470 1469 1469 1468 1468 1467 1467 1467 1466 1465 1464 1464 1463
1489 1490 1490 1490 1490 1490 1491 1491 1491 1491 1490 1490 1490 1490 1490 1490 1489 1488 1487 1486 1485 1483 1482 1480 1478 1477 1475 1473 1472 1470 1469 1468 1467 1466 1466 1465 1464 1464 1463 1462 1462 1461 1460 1460
1487 1488 1488 1489 1489 1490 1490 1490 1490 1490 1489 1489 1489 1489 1489 1488 1487 1486 1485 1484 1483 1482 1481 1479 1478 1476 1474 1472 1471 1469 1468 1466 1466 1464 1463 1462 1461 1461 1460 1460 1459 1458 1457 1456
1486 1486 1487 1488 1488 1488 1488 1489 1489 1489 1489 1488 1488 1488 1487 1487 1486 1484 1484 1483 1482 1480 1479 1478 1476 1474 1473 1471 1470 1468 1467 1465 1464 1463 1462 1460 1459 1458 1458 1457 1456 1455 1454 1453
1484 1485 1485 1486 1487 1487 1487 1487 1487 1487 1487 1487 1486 1486 1485 1485 1484 1483 1482 1482 1481 1480 1478 1477 1475 1473 1471 1470 1469 1467 1465 1463 1462 1461 1459 1458 1457 1456 1455 1454 1454 1453 1452 1451
1483 1483 1484 1484 1485 1485 1486 1486 1486 1486 1485 1485 1484 1483 1483 1482 1482 1481 1481 1480 1479 1478 1477 1476 1474 1472 1471 1469 1467 1465 1464 1462 1460 1459 1457 1456 1454 1453 1452 1451 1451 1450 1449 1448
1482 1482 1482 1483 1484 1484 1484 1484 1484 1484 1483 1483 1482 1481 1481 1480 1480 1480 1479 1478 1478 1477 1475 1474 1473 1471 1469 1467 1466 1464 1462 1460 1459 1457 1456 1454 1452 1451 1450 1449 1448 1447 1446 1445
1481 1481 1481 1482 1482 1482 1482 1483 1483 1483 1482 1481 1481 1480 1480 1479 1478 1478 1477 1476 1475 1474 1473 1472 1471 1469 1467 1465 1464 1462 1460 1458 1457 1456 1454 1452 1451 1449 1448 1447 1446 1444 1443 1442
1480 1480 1481 1481 1481 1481 1481 1481 1481 1481 1481 1480 1480 1479 1479 1478 1477 1476 1475 1474 1473 1472 1471 1469 1468 1467 1465 1464 1462 1460 1459 1457 1456 1454 1452 1451 1449 1447 1446 1444 1443 1441 1440 1439
1479 1479 1479 1479 1480 1480 1480 1480 1480 1479 1479 1478 1478 1478 1477 1476 1475 1474 1473 1472 1471 1470 1468 1467 1466 1465 1463 1462 1460 1459 1457 1456 1454 1452 1451 1449 1447 1445 1443 1441 1440 1439 1437 1435
1478 1478 1478 1478 1478 1479 1479 1479 1478 1478 1477 1477 1476 1476 1475 1475 1474 1473 1472 1470 1469 1468 1467 1466 1464 1463 1461 1460 1458 1457 1455 1454 1452 1451 1449 1447 1445 1443 1441 1439 1437 1436 1434 1432
1476 1476 1476 1476 1477 1477 1477 1476 1476 1476 1475 1475 1474 1474 1474 1473 1472 1471 1470 1469 1468 1466 1465 1464 1462 1461 1460 1458 1457 1455 1454 1452 1450 1448 1447 1444 1442 1440 1438 1436 1434 1432 1430 1429